Lander, WY

1:31 AM MST on December 11, 2017 (GMT -0700)
Hunt

Weather History for KLND - April, 2014

Change the Weather History Date:

Monday, April 28, 2014

  Actual Average Record
Temperature  
Mean Temperature 39 °F 48 °F  
Max Temperature 50 °F 60 °F 81 °F (2000)
Min Temperature 28 °F 35 °F 14 °F (1984)
Degree Days  
Heating Degree Days 26 17  
Month to date heating degree days 574 600  
Since 1 July heating degree days 7205 7219  
Cooling Degree Days 0 0  
Month to date cooling degree days 0 0  
Year to date cooling degree days 0 0  
Moisture  
Dew Point 18 °F    
Average Humidity 47    
Maximum Humidity 75    
Minimum Humidity 18    
Precipitation  
Precipitation 0.04 in 0.08 in 1.12 in (1944)
Month to date precipitation 0.70 1.72  
Year to date precipitation 2.68 3.87  
Snow  
Snow 0.00 in 0.50 in - ()
Month to date snowfall 4.3 15.8  
Since 1 July snowfall 73.5 85.5  
Snow Depth 0.00 in    
Sea Level Pressure  
Sea Level Pressure 29.92 in    
Wind  
Wind Speed 15 mph (NNW)    
Max Wind Speed 35 mph    
Max Gust Speed 43 mph    
Visibility 10 miles    
Events      
T = Trace of Precipitation, MM = Missing Value Source: NWS Daily Summary

Daily Weather History Graph

Daily Weather History Graph

Search for Another Location

Airport or City:

Trip Planner

Search our weather history database for the weather conditions in past years. The results will help you decide how hot, cold, wet, or windy it might be!

Date:

Astronomy

Apr. 28, 2014 Rise Set
Actual Time 6:13 AM MDT 8:12 PM MDT
Civil Twilight 5:42 AM MDT 8:42 PM MDT
Nautical Twilight 5:05 AM MDT 9:20 PM MDT
Astronomical Twilight 4:24 AM MDT 10:01 PM MDT
Moon 5:54 AM MDT (4/28) 7:53 PM MDT (4/28)
Length of Visible Light 15h 00m
Length of Day
13h 58m
Waning Crescent, 0% of the Moon is Illuminated
Apr 28
Waning Crescent
Apr 29
New
May 6
First Quarter
May 14
Full
May 21
Last Quarter

Hourly Weather History & Observations

Time (MDT) Temp. Windchill Dew Point Humidity Pressure Visibility Wind Dir Wind Speed Gust Speed Precip Events Conditions
12:53 AM 35.6 °F 31.7 °F 21.2 °F 56% 29.72 in 10.0 mi SE 4.6 mph - N/A   Clear
1:53 AM 35.6 °F 32.8 °F 19.4 °F 52% 29.72 in 10.0 mi South 3.5 mph - N/A   Clear
2:53 AM 34.0 °F 28.0 °F 17.1 °F 50% 29.68 in 10.0 mi West 6.9 mph - N/A   Clear
3:53 AM 30.2 °F 21.9 °F 19.4 °F 64% 29.72 in 10.0 mi NNW 9.2 mph - N/A   Clear
4:53 AM 33.1 °F - 16.0 °F 50% 29.74 in 10.0 mi Calm Calm - N/A   Clear
5:53 AM 30.0 °F - 16.0 °F 56% 29.78 in 10.0 mi Calm Calm - N/A   Clear
6:53 AM 30.9 °F 22.2 °F 12.0 °F 46% 29.79 in 10.0 mi NNW 10.4 mph - N/A   Clear
7:53 AM 36.0 °F 28.5 °F 15.1 °F 43% 29.80 in 10.0 mi NNW 10.4 mph - N/A   Clear
8:53 AM 41.0 °F 30.7 °F 6.1 °F 24% 29.79 in 10.0 mi NNW 25.3 mph 38.0 mph N/A   Clear
9:53 AM 41.0 °F 30.5 °F 7.0 °F 25% 29.82 in 10.0 mi NNW 26.5 mph 40.3 mph N/A   Partly Cloudy
10:53 AM 42.1 °F 31.7 °F 5.0 °F 22% 29.83 in 10.0 mi NNW 27.6 mph 41.4 mph N/A   Mostly Cloudy
11:53 AM 45.0 °F 37.4 °F 6.1 °F 20% 29.84 in 10.0 mi NNW 18.4 mph 32.2 mph N/A   Overcast
12:53 PM 48.0 °F - 7.0 °F 19% 29.82 in 10.0 mi NW 18.4 mph 31.1 mph N/A   Clear
1:53 PM 48.2 °F - 6.8 °F 19% 29.87 in 10.0 mi North 20.7 mph 32.2 mph N/A   Scattered Clouds
2:53 PM 44.1 °F 34.0 °F 21.9 °F 42% 29.91 in 10.0 mi North 29.9 mph 41.4 mph N/A   Scattered Clouds
4:43 PM 44.1 °F 37.4 °F 26.1 °F 49% 29.98 in 10.0 mi ENE 13.8 mph - N/A   Overcast
4:53 PM 43.0 °F 36.0 °F 24.1 °F 47% 30.00 in 10.0 mi NE 13.8 mph - N/A   Overcast
5:16 PM 39.0 °F 34.0 °F 25.0 °F 57% 30.02 in 2.5 mi Variable 6.9 mph 24.2 mph N/A   Haze
5:37 PM 37.0 °F 26.7 °F 28.0 °F 70% 30.03 in 9.0 mi North 19.6 mph 25.3 mph 0.04 in   Overcast
5:53 PM 37.9 °F 29.2 °F 27.0 °F 65% 30.08 in 9.0 mi NE 15.0 mph - 0.04 in   Overcast
6:53 PM 39.9 °F 31.8 °F 26.1 °F 58% 30.09 in 10.0 mi North 15.0 mph - N/A   Overcast
7:53 PM 36.0 °F 23.9 °F 27.0 °F 70% 30.12 in 10.0 mi WNW 25.3 mph 32.2 mph 0.00 in   Overcast
8:53 PM 34.0 °F 23.4 °F 27.0 °F 75% 30.14 in 10.0 mi WNW 17.3 mph 24.2 mph 0.00 in   Mostly Cloudy
9:53 PM 35.1 °F 25.9 °F 24.1 °F 64% 30.16 in 10.0 mi WNW 13.8 mph - N/A   Partly Cloudy
10:53 PM 36.0 °F 28.5 °F 19.9 °F 52% 30.17 in 10.0 mi WNW 10.4 mph - N/A   Clear
11:53 PM 34.0 °F 28.0 °F 19.0 °F 54% 30.18 in 10.0 mi West 6.9 mph - N/A   Clear